Location: Arcizac
(43.0933°N, 0.0112°E)
Time: 11:17:57
(UTC+00:00)

Cosmos 1300 Rocket - Pass Details

Date: 14 December 2019
Orbit: 602 x 626 km, 82.5° (Epoch: 21 January)

Event Time Altitude Azimuth Distance (km) Brightness Sun altitude
Rises 18:40:12 0° 349° (N) 2,865 7.0 -23.7°
Reaches altitude 10° 18:42:25 10° 347° (NNW) 1,956 6.1 -24.1°
Maximum altitude 18:46:43 70° 265° (W) 643 3.7 -24.9°
Drops below altitude 10° 18:50:59 10° 181° (S) 1,941 6.2 -25.6°
Sets 18:53:11 0° 179° (S) 2,841 7.1 -26.0°
